COSMOS 2251 DEB, 37966

Orbit data source: Space-Track

COSMOS 2251 DEB, 37966 is space debris in LEO originally from a launch on Wed, 16 Jun 1993 UTC launched from the Plesetsk Missile And Space Complex (PKMTR). The debris from Iridium 33, an American commercial communications satellite, has been tracked extensively since its accidental collision with the defunct Russian satellite Cosmos 2251 in 2009. This event, occurring at high speed in low Earth orbit (LEO), generated thousands of pieces of space debris, significantly increasing the risk of further collisions. The Iridium 33 debris cloud has impacted space traffic management and orbital debris mitigation strategies, making it a subject of ongoing study in space situational awareness.

Loading next visibility...
Identifier
37966, 1993-036BPR
Orbit
LEO
Country
Flag of CISCIS
Related business
Manufacturer
Unknown
Mission
Spacecraft
Bus & Motor
Unknown
Mass
Unknown
Launch date (UTC)
1993-06-16 (33 years ago)
Launch vehicle
Unknown
Launch site
Plesetsk Missile And Space Complex (PKMTR)
Object type
Payload
Rocket body
Debris
Shape & HBR
Unknown shape, 0.1 m
Radar Cross Section
Small (<0.1 m²)

Expand to show TLE details & history
Last TLE update: 2 months ago

TLE from 2 months ago
0 COSMOS 2251 DEB
1 37966U 93036BPR 26144.00862864  .00144975  00000-0  30061-2 0  9995
2 37966  73.9694 245.5801 0010910   8.5380 351.6014 15.45046173878189
Epoch: 2026-05-24T00:12Z
TLE epoch observation values (Epoch: 2026-05-24T00:12:25.514Z)
Latitude
0.00003°
Longitude
0.85686°
Altitude
426.63 km
Speed
7.66 km/s
True Right ascension
16h 22m 19s
True Declination
0° 00' 00"
Sunlit
Object was in full shadow at epoch
Visualization orbit readout
Latitude
Unknown
Longitude
Unknown
Altitude
Unknown
Speed
Unknown
Apparent Right ascension
Unknown
Apparent Declination
Unknown
Sunlit
N/A
Visualization observer readout
Local Sidereal Time
15:35:30
Azimuth
Unknown
Elevation
Unknown
Doppler factor
Unknown
Orbital elements
Apogee altitude
436.18 km
Perigee altitude
421.327 km
Semi-major axis
6,806.89 km
Eccentricity
0.00109
Inclination
73.9694°
RAAN
245.5801°
Arg. of periapsis
8.538°
True anomaly
351.58312°
Mean anomaly
351.6014°
Eccentric anomaly
351.59226°
Mean motion
3.86474 °/min
Orbital period
93.15 mins
BSTAR
0.0030061
Loading maneuver chart data...
Computing Atmospheric mass density...

Documentation

Showing up to 5 results
|